Showing default

VSP ROSE, 59124

Orbit data source: Space-Track

VSP ROSE, 59124 is a payload satellite owned by Aerospacelab (BE) in SSO that was launched on Mon, 04 Mar 2024 UTC via an FALCON 9 launch vehicle from the Air Force Western Test Range (AFWTR). Payload-class satellites include a variety of spacecraft equipped with specific instruments for various scientific and technological missions. These include communications satellites like Starlink; space stations such as the ISS; scientific satellites like the Hubble; Earth observation satellites from companies like Planet Labs, Umbra, and HawkEye 360; GPS; miniature CubeSats for education and research; and military/defense satellites.

Loading next visibility...
Identifier
59124, 2024-043AC
Orbit
SSO
Last TLE update
10 hours ago
Origin
Manufacturer
Aerospacelab
Mission
Operational Commercial Communications
Bus & Motor
AEROSP, Unknown motor
Mass
~200 kg wet, ~200 kg dry
Launch date (UTC)
2024-03-04 (1 year ago)
Launch vehicle
FALCON 9
Launch site
Air Force Western Test Range (AFWTR)
Object type
Payload
Rocket body
Debris
Shape & HBR
Box, 0.0 m
Radar Cross Section
0.004 m², Medium (>0.1 m² and < 1m²)

Expand to show TLE details & history

TLE from 10 hours ago
0 VSP ROSE
1 59124U 24043AC  25198.85565856  .00003388  00000-0  13973-3 0  9995
2 59124  97.5185 327.0336 0011286 352.4061   7.7004 15.24710749 75977
Epoch: 2025-07-17T20:32Z
TLE epoch observation values (Epoch: 2025-07-17T20:32:08.899Z)
Latitude
0.00001°
Longitude
83.08104°
Altitude
487.063 km
Speed
7.626 km/s
True Right ascension
21h 48m 08s
True Declination
0° 00' 00"
Sunlit
Object was in full shadow at epoch
Visualization orbit readout
Latitude
-56.72174°
Longitude
-108.01628°
Altitude
516.767 km
Speed
7.602 km/s
Apparent Right ascension
08h 20m 04s
Apparent Declination
-48° 52' 09"
Sunlit
Object is in daylight
Visualization observer readout
Local Sidereal Time
19:46:22
Azimuth
211.041° SW
Elevation
-79.225°
Doppler factor
1
Orbital elements
Apogee altitude
496.368 km
Perigee altitude
480.869 km
Semi-major axis
6,866.756 km
Eccentricity
0.00113
Inclination
97.5185°
RAAN
327.0336°
Arg. of periapsis
352.4061°
True anomaly
7.71775°
Mean anomaly
7.7004°
Eccentric anomaly
7.70907°
Mean motion
3.81431 °/min
Orbital period
94.38 mins
BSTAR
0.00013973
Loading maneuver chart data...
Loading SW <> Apogee altitude chart data...
Loading historical data...
Loading historical data...
Loading historical data...
Loading historical data...
Loading historical data...
Loading historical data...
Loading historical data...
|